{"data":{"norad_id":62271,"intl_designator":"2024-237E","name":"STARLINK-11489 [DTC]","alt_names":[],"object_type":"PAYLOAD","status":"ACTIVE","operator":null,"country":"US","launch_date":"2024-12-08","launch_site_code":"AFETR","launch_vehicle":null,"mission":null,"orbit_class":"UNKNOWN","rcs_meters":null,"size_class":null,"mass_kg":null,"dimensions":null,"purposes":["comms"],"wikipedia_slug":null,"has_3d_model":false,"image_url":null,"decayed_at":null,"tle_current":{"epoch":"2026-05-25T03:58:14.073024Z","epoch_age_seconds":57280,"freshness":"FRESH","line1":"1 62271U 24237E   26145.16544066  .00237603  00000+0  17959-2 0  9999","line2":"2 62271  42.9989 316.2022 0002894 287.7115  72.3436 15.70929723 85071","mean_motion":15.70929723,"eccentricity":0.0002894,"inclination_deg":42.9989,"raan_deg":316.2022,"arg_perigee_deg":287.7115,"mean_anomaly_deg":72.3436,"bstar":0.0017959,"rev_number":8507,"period_min":91.665462745847,"perigee_km":354.2897003414,"apogee_km":358.18755695526,"semimajor_km":6734.3756286483,"source":"CELESTRAK","updated_at":"2026-05-25T13:38:19.641962Z"}}}